contact:dominique.lefevre@mio.osupytheas.fr, maurice.libes@osupytheas.fr, didier.mallarino@osupytheas.fr
Project:EMSO http://www.emso-fr.org/EMSO-France
Depth: 2436.0 m
Title:EMSO Ligure Ouest : Data MII capteur AQUADOPP
Date,Latitude,Longitude,X_East,Y_North,Z_Up,Amplitude_X,Amplitude_Y,Amplitude_Z,Batterie,SoundSpeed,Heading,Pitch,Roll,Pressure,TIS,Speed,Direction
, degrees North, degrees East, m.s-1, m.s-1,m.s-1, 1, 1, 1, Volt, m.s-1, degree, degree, degree, dbar, degree_C, m.s-1, degree
2020-03-01T00:04:03,42.805,6.029,-0.038,0.023,-0.051,103.0,110.0,102.0,13.3,1505.3,326.6,-0.7,1.8,2470.372,13.31,0.044,301.2
2020-03-01T00:07:03,42.805,6.029,-0.032,0.012,-0.038,105.0,110.0,106.0,13.4,1505.3,327.1,-0.7,1.8,2470.312,13.32,0.034,290.6
2020-03-01T00:10:03,42.805,6.029,-0.026,0.02,-0.021,105.0,111.0,101.0,13.3,1505.3,326.3,-0.7,1.8,2470.351,13.32,0.032,307.6
2020-03-01T00:13:03,42.805,6.029,-0.043,-0.003,-0.076,105.0,110.0,102.0,13.3,1505.3,328.0,-0.7,1.8,2470.316,13.33,0.043,266.0
2020-03-01T00:16:03,42.805,6.029,-0.017,0.037,-0.024,103.0,109.0,102.0,13.4,1505.3,324.4,-0.7,1.9,2470.3,13.33,0.04,335.3
2020-03-01T00:19:03,42.805,6.029,-0.05,0.012,-0.088,104.0,108.0,102.0,13.3,1505.3,323.9,-0.7,1.9,2470.364,13.33,0.051,283.5
2020-03-01T00:22:03,42.805,6.029,-0.037,0.0,-0.048,105.0,109.0,101.0,13.3,1505.3,326.1,-0.7,1.8,2470.338,13.33,0.037,270.0
2020-03-01T00:25:03,42.805,6.029,-0.018,0.007,-0.032,105.0,107.0,102.0,13.4,1505.3,325.9,-0.7,1.8,2470.299,13.33,0.019,291.2
2020-03-01T00:28:03,42.805,6.029,-0.012,0.016,-0.015,106.0,108.0,102.0,13.4,1505.3,324.1,-0.7,1.8,2470.298,13.33,0.02,323.1
2020-03-01T00:31:03,42.805,6.029,-0.024,0.026,-0.017,105.0,109.0,102.0,13.4,1505.3,327.4,-0.7,1.8,2470.321,13.33,0.035,317.3
2020-03-01T00:34:03,42.805,6.029,-0.019,0.003,-0.07,106.0,109.0,101.0,13.4,1505.3,326.9,-0.7,1.8,2470.344,13.33,0.019,279.0
2020-03-01T00:37:03,42.805,6.029,-0.029,0.011,-0.036,106.0,109.0,102.0,13.4,1505.4,323.6,-0.7,1.8,2470.315,13.34,0.031,290.8
2020-03-01T00:40:03,42.805,6.029,-0.017,0.012,-0.029,106.0,108.0,102.0,13.4,1505.4,324.0,-0.7,1.8,2470.287,13.34,0.02,305.2
2020-03-01T00:43:03,42.805,6.029,-0.04,0.011,-0.067,105.0,108.0,102.0,13.4,1505.3,324.1,-0.7,1.9,2470.323,13.33,0.041,285.4
2020-03-01T00:46:03,42.805,6.029,-0.02,0.027,-0.022,103.0,107.0,101.0,13.4,1505.3,328.0,-0.7,1.9,2470.332,13.33,0.033,323.5
2020-03-01T00:49:03,42.805,6.029,-0.01,0.002,-0.028,104.0,109.0,102.0,13.4,1505.3,327.0,-0.7,1.9,2470.313,13.33,0.01,281.3
2020-03-01T00:52:03,42.805,6.029,-0.018,0.025,0.014,104.0,109.0,102.0,13.3,1505.3,328.0,-0.7,1.9,2470.28,13.33,0.03,324.2
2020-03-01T00:55:03,42.805,6.029,-0.023,0.025,-0.048,104.0,110.0,102.0,13.3,1505.3,326.6,-0.7,1.8,2470.331,13.33,0.033,317.4
2020-03-01T00:58:03,42.805,6.029,0.005,0.013,-0.025,105.0,109.0,101.0,13.3,1505.3,325.7,-0.7,1.8,2470.292,13.33,0.013,21.0
2020-03-01T01:04:03,42.805,6.029,0.0,0.018,-0.009,106.0,110.0,103.0,13.4,1505.3,323.7,-0.7,1.8,2470.338,13.31,0.018,0.0
2020-03-01T01:07:03,42.805,6.029,0.009,0.028,-0.023,105.0,109.0,102.0,13.3,1505.3,324.8,-0.7,1.8,2470.326,13.32,0.029,17.8
2020-03-01T01:10:03,42.805,6.029,-0.006,0.022,-0.025,106.0,109.0,102.0,13.3,1505.3,323.7,-0.7,1.9,2470.327,13.33,0.022,344.7
2020-03-01T01:13:03,42.805,6.029,-0.015,0.026,-0.047,106.0,109.0,102.0,13.3,1505.3,326.6,-0.7,1.8,2470.305,13.33,0.03,330.0
2020-03-01T01:16:03,42.805,6.029,-0.001,0.026,-0.017,106.0,108.0,102.0,13.4,1505.3,328.2,-0.7,1.8,2470.355,13.33,0.026,357.8
2020-03-01T01:19:03,42.805,6.029,-0.026,0.024,-0.001,105.0,109.0,104.0,13.4,1505.3,325.7,-0.7,1.8,2470.299,13.33,0.035,312.7
2020-03-01T01:22:03,42.805,6.029,-0.025,0.022,-0.011,104.0,109.0,102.0,13.4,1505.3,326.1,-0.7,1.8,2470.288,13.33,0.033,311.3
2020-03-01T01:25:03,42.805,6.029,-0.015,0.038,0.013,106.0,107.0,102.0,13.3,1505.3,323.1,-0.8,1.8,2470.28,13.33,0.04,338.5
2020-03-01T01:28:03,42.805,6.029,-0.035,0.027,-0.011,104.0,109.0,102.0,13.3,1505.3,325.4,-0.7,1.8,2470.319,13.33,0.044,307.7
2020-03-01T01:31:03,42.805,6.029,-0.015,0.022,-0.015,109.0,109.0,102.0,13.4,1505.3,327.9,-0.7,1.8,2470.298,13.33,0.026,325.7
2020-03-01T01:34:03,42.805,6.029,0.026,0.006,0.016,103.0,109.0,102.0,13.4,1505.4,325.9,-0.7,1.8,2470.299,13.34,0.026,77.0
2020-03-01T01:37:03,42.805,6.029,-0.008,0.03,-0.034,105.0,110.0,101.0,13.4,1505.4,324.4,-0.7,1.9,2470.341,13.34,0.031,345.1
2020-03-01T01:40:03,42.805,6.029,-0.036,0.021,-0.042,104.0,109.0,109.0,13.4,1505.4,328.0,-0.7,1.8,2470.291,13.34,0.041,300.3
2020-03-01T01:43:03,42.805,6.029,0.002,0.018,-0.031,104.0,110.0,103.0,13.4,1505.4,323.5,-0.7,1.8,2470.264,13.34,0.018,6.3
2020-03-01T01:46:03,42.805,6.029,-0.006,0.028,-0.007,103.0,108.0,102.0,13.4,1505.4,324.2,-0.7,1.8,2470.273,13.34,0.028,347.9
2020-03-01T01:49:03,42.805,6.029,-0.007,0.038,0.009,106.0,111.0,102.0,13.4,1505.4,325.9,-0.7,1.8,2470.303,13.34,0.038,349.6
2020-03-01T01:52:03,42.805,6.029,-0.011,0.023,0.007,103.0,108.0,102.0,13.4,1505.4,325.5,-0.7,1.8,2470.318,13.34,0.025,334.4
2020-03-01T01:55:03,42.805,6.029,-0.007,0.028,-0.044,105.0,109.0,101.0,13.3,1505.4,327.7,-0.7,1.8,2470.287,13.34,0.028,346.0
2020-03-01T01:58:03,42.805,6.029,-0.031,0.027,-0.046,105.0,110.0,101.0,13.4,1505.4,327.4,-0.7,1.8,2470.298,13.34,0.041,311.1
2020-03-01T02:04:03,42.805,6.029,0.008,0.029,-0.004,104.0,111.0,100.0,13.4,1505.3,327.8,-0.7,1.8,2470.328,13.32,0.03,15.4
2020-03-01T02:07:03,42.805,6.029,0.041,0.012,0.024,104.0,110.0,103.0,13.4,1505.3,328.1,-0.7,1.8,2470.32,13.33,0.042,73.7
2020-03-01T02:10:03,42.805,6.029,0.013,0.023,0.004,104.0,111.0,101.0,13.4,1505.3,328.1,-0.7,1.8,2470.328,13.33,0.026,29.5
2020-03-01T02:13:03,42.805,6.029,-0.004,0.023,-0.043,105.0,110.0,101.0,13.4,1505.4,324.5,-0.7,1.9,2470.304,13.34,0.023,350.1
2020-03-01T02:16:03,42.805,6.029,-0.004,0.016,-0.005,103.0,110.0,101.0,13.4,1505.4,327.2,-0.7,1.8,2470.292,13.34,0.016,346.0
2020-03-01T02:19:03,42.805,6.029,-0.004,0.027,-0.039,104.0,112.0,101.0,13.4,1505.4,324.5,-0.7,1.8,2470.311,13.34,0.027,351.6
2020-03-01T02:22:03,42.805,6.029,-0.002,0.021,-0.021,106.0,109.0,101.0,13.4,1505.4,325.9,-0.7,1.9,2470.282,13.34,0.021,354.6
2020-03-01T02:25:03,42.805,6.029,0.012,-0.001,-0.035,104.0,109.0,102.0,13.4,1505.4,327.8,-0.7,1.8,2470.269,13.34,0.012,94.8
2020-03-01T02:28:03,42.805,6.029,-0.024,0.022,-0.06,103.0,109.0,102.0,13.4,1505.4,326.5,-0.7,1.8,2470.29,13.35,0.032,312.5
2020-03-01T02:31:03,42.805,6.029,-0.009,0.034,-0.031,104.0,109.0,102.0,13.4,1505.4,328.3,-0.7,1.8,2470.314,13.35,0.035,345.2
2020-03-01T02:34:03,42.805,6.029,0.0,0.021,-0.051,105.0,111.0,103.0,13.4,1505.4,327.5,-0.7,1.8,2470.244,13.35,0.021,0.0
2020-03-01T02:37:03,42.805,6.029,-0.03,0.01,-0.035,105.0,110.0,104.0,13.3,1505.4,326.1,-0.7,1.8,2470.269,13.35,0.031,288.4
2020-03-01T02:40:03,42.805,6.029,-0.018,0.033,-0.057,104.0,109.0,101.0,13.4,1505.4,328.0,-0.7,1.8,2470.27,13.35,0.037,331.4
2020-03-01T02:43:03,42.805,6.029,-0.004,0.014,-0.018,103.0,108.0,102.0,13.3,1505.4,326.4,-0.7,1.8,2470.254,13.35,0.014,344.1
2020-03-01T02:46:03,42.805,6.029,0.004,0.027,-0.06,104.0,109.0,101.0,13.4,1505.4,326.0,-0.7,1.8,2470.261,13.35,0.027,8.4
2020-03-01T02:49:03,42.805,6.029,-0.005,0.017,-0.043,104.0,109.0,102.0,13.4,1505.4,326.6,-0.7,1.8,2470.256,13.35,0.017,343.6
2020-03-01T02:52:03,42.805,6.029,-0.02,0.011,-0.034,104.0,110.0,101.0,13.4,1505.4,325.6,-0.7,1.8,2470.275,13.35,0.022,298.8
2020-03-01T02:55:03,42.805,6.029,-0.022,0.031,-0.053,104.0,109.0,101.0,13.4,1505.4,326.3,-0.7,1.8,2470.257,13.35,0.038,324.6
2020-03-01T02:58:03,42.805,6.029,-0.004,0.01,-0.063,104.0,109.0,102.0,13.4,1505.4,327.6,-0.7,1.8,2470.226,13.35,0.01,338.2
2020-03-01T03:04:03,42.805,6.029,0.015,0.023,0.0,103.0,109.0,103.0,13.4,1505.3,327.6,-0.7,1.8,2470.281,13.33,0.027,33.1
2020-03-01T03:10:03,42.805,6.029,0.0,0.011,-0.056,104.0,107.0,101.0,13.4,1505.3,327.0,-0.7,1.8,2470.307,13.32,0.011,0.0
2020-03-01T03:13:03,42.805,6.029,-0.006,-0.004,-0.012,103.0,108.0,102.0,13.4,1505.3,325.7,-0.7,1.8,2470.283,13.33,0.007,236.3
2020-03-01T03:16:03,42.805,6.029,-0.008,0.023,-0.05,105.0,108.0,101.0,13.4,1505.4,327.4,-0.7,1.9,2470.313,13.34,0.024,340.8
2020-03-01T03:19:03,42.805,6.029,0.021,0.017,-0.026,104.0,108.0,101.0,13.3,1505.4,324.6,-0.7,1.9,2470.301,13.34,0.027,51.0
2020-03-01T03:22:03,42.805,6.029,0.026,0.031,-0.011,104.0,108.0,100.0,13.3,1505.4,324.4,-0.7,1.8,2470.251,13.34,0.04,40.0
2020-03-01T03:25:03,42.805,6.029,0.003,-0.003,-0.049,103.0,108.0,101.0,13.3,1505.4,324.0,-0.7,1.8,2470.256,13.35,0.004,135.0
2020-03-01T03:28:03,42.805,6.029,-0.003,0.005,-0.027,102.0,109.0,100.0,13.4,1505.4,326.4,-0.7,1.8,2470.299,13.35,0.005,329.0
2020-03-01T03:31:03,42.805,6.029,-0.009,0.031,-0.023,106.0,106.0,101.0,13.4,1505.4,325.8,-0.7,1.8,2470.263,13.35,0.032,343.8
2020-03-01T03:34:03,42.805,6.029,-0.035,0.011,-0.088,105.0,108.0,102.0,13.4,1505.4,325.9,-0.7,1.8,2470.262,13.35,0.036,287.4
2020-03-01T03:37:03,42.805,6.029,-0.025,0.021,-0.077,105.0,107.0,102.0,13.3,1505.4,326.7,-0.7,1.8,2470.201,13.35,0.032,310.0
2020-03-01T03:40:03,42.805,6.029,0.044,0.016,-0.019,106.0,110.0,102.0,13.3,1505.4,324.8,-0.7,1.8,2470.266,13.35,0.046,70.0
2020-03-01T03:43:03,42.805,6.029,0.0,-0.003,-0.028,104.0,108.0,106.0,13.4,1505.4,326.5,-0.7,1.8,2470.242,13.35,0.003,180.0
2020-03-01T03:46:03,42.805,6.029,-0.044,0.02,-0.075,105.0,112.0,101.0,13.4,1505.4,327.6,-0.7,1.9,2470.271,13.35,0.048,294.4
2020-03-01T03:49:03,42.805,6.029,-0.033,0.023,-0.04,104.0,108.0,102.0,13.3,1505.4,323.6,-0.7,1.9,2470.246,13.35,0.04,304.9
2020-03-01T03:52:03,42.805,6.029,-0.029,0.02,-0.047,102.0,107.0,101.0,13.4,1505.4,327.0,-0.7,1.9,2470.269,13.35,0.035,304.6
2020-03-01T03:55:03,42.805,6.029,0.041,0.009,0.0,101.0,107.0,101.0,13.4,1505.4,328.1,-0.7,1.8,2470.254,13.35,0.041,77.6
2020-03-01T03:58:03,42.805,6.029,-0.016,0.014,-0.064,106.0,107.0,103.0,13.4,1505.4,323.8,-0.7,1.8,2470.232,13.35,0.021,311.2
2020-03-01T04:04:03,42.805,6.029,-0.051,-0.001,-0.07,105.0,108.0,102.0,13.3,1505.3,325.4,-0.7,1.8,2470.291,13.33,0.051,268.9
2020-03-01T04:07:03,42.805,6.029,0.012,0.008,-0.052,102.0,107.0,100.0,13.4,1505.4,328.8,-0.7,1.8,2470.253,13.34,0.014,56.3
2020-03-01T04:10:03,42.805,6.029,-0.005,0.015,-0.045,104.0,106.0,101.0,13.4,1505.4,327.2,-0.7,1.9,2470.247,13.34,0.015,341.6
2020-03-01T04:13:03,42.805,6.029,-0.012,0.005,-0.057,102.0,107.0,102.0,13.4,1505.4,328.1,-0.7,1.9,2470.258,13.34,0.013,292.6
2020-03-01T04:16:03,42.805,6.029,0.003,0.015,-0.034,102.0,110.0,101.0,13.4,1505.4,328.5,-0.7,1.9,2470.288,13.34,0.015,11.3
2020-03-01T04:19:03,42.805,6.029,0.004,0.022,-0.028,103.0,109.0,101.0,13.3,1505.4,326.0,-0.7,1.8,2470.248,13.34,0.022,10.3
2020-03-01T04:22:03,42.805,6.029,0.009,0.026,-0.064,103.0,108.0,101.0,13.4,1505.4,324.9,-0.7,1.8,2470.283,13.34,0.027,19.1
2020-03-01T04:25:03,42.805,6.029,0.011,0.006,0.011,103.0,108.0,101.0,13.3,1505.4,324.7,-0.7,1.8,2470.269,13.34,0.012,61.4
2020-03-01T04:28:03,42.805,6.029,0.027,-0.005,-0.048,104.0,109.0,101.0,13.4,1505.4,323.2,-0.7,1.8,2470.286,13.34,0.027,100.5
2020-03-01T04:31:03,42.805,6.029,0.02,0.002,-0.036,104.0,108.0,101.0,13.4,1505.4,328.2,-0.6,1.9,2470.269,13.34,0.02,84.3
2020-03-01T04:34:03,42.805,6.029,-0.009,0.004,-0.032,105.0,108.0,102.0,13.4,1505.4,325.6,-0.7,1.8,2470.236,13.34,0.009,294.0
2020-03-01T04:37:03,42.805,6.029,0.015,0.011,-0.055,103.0,110.0,101.0,13.4,1505.4,323.6,-0.7,1.8,2470.25,13.34,0.018,53.7
2020-03-01T04:40:03,42.805,6.029,0.003,0.013,-0.031,104.0,111.0,102.0,13.4,1505.4,323.5,-0.7,1.8,2470.266,13.34,0.013,13.0
2020-03-01T04:43:03,42.805,6.029,-0.029,0.002,-0.101,103.0,109.0,102.0,13.3,1505.4,327.9,-0.7,1.8,2470.222,13.34,0.029,273.9
2020-03-01T04:46:03,42.805,6.029,0.008,0.025,-0.058,106.0,110.0,101.0,13.4,1505.4,326.4,-0.7,1.8,2470.264,13.34,0.026,17.7
2020-03-01T04:49:03,42.805,6.029,-0.048,-0.003,-0.086,107.0,110.0,102.0,13.4,1505.4,326.9,-0.7,1.8,2470.245,13.34,0.048,266.4
2020-03-01T04:52:03,42.805,6.029,-0.006,0.001,-0.078,102.0,110.0,100.0,13.4,1505.4,324.2,-0.7,1.8,2470.203,13.34,0.006,279.5
2020-03-01T04:55:03,42.805,6.029,-0.051,-0.004,-0.125,106.0,109.0,103.0,13.4,1505.4,324.6,-0.7,1.8,2470.274,13.34,0.051,265.5
2020-03-01T04:58:03,42.805,6.029,0.012,0.0,-0.048,110.0,109.0,103.0,13.4,1505.4,326.1,-0.7,1.9,2470.24,13.34,0.012,90.0
2020-03-01T05:04:03,42.805,6.029,-0.024,-0.002,-0.079,104.0,109.0,102.0,13.3,1505.3,326.1,-0.7,1.8,2470.31,13.32,0.024,265.2
2020-03-01T05:07:03,42.805,6.029,-0.021,0.011,-0.069,103.0,108.0,101.0,13.4,1505.3,325.9,-0.7,1.9,2470.299,13.32,0.023,297.6
2020-03-01T05:10:03,42.805,6.029,0.018,-0.003,-0.033,103.0,111.0,102.0,13.3,1505.3,327.4,-0.7,1.8,2470.22,13.33,0.018,99.5
2020-03-01T05:13:03,42.805,6.029,-0.016,0.004,-0.071,102.0,111.0,101.0,13.3,1505.3,326.2,-0.7,1.8,2470.263,13.33,0.016,284.0
2020-03-01T05:16:03,42.805,6.029,-0.046,0.006,-0.047,104.0,112.0,101.0,13.4,1505.3,324.9,-0.7,1.8,2470.299,13.33,0.046,277.4
2020-03-01T05:19:03,42.805,6.029,0.011,-0.002,-0.037,105.0,110.0,102.0,13.3,1505.3,327.9,-0.7,1.9,2470.259,13.33,0.011,100.3
2020-03-01T05:22:03,42.805,6.029,0.006,0.003,-0.065,104.0,109.0,101.0,13.3,1505.3,327.2,-0.7,1.8,2470.251,13.33,0.006,63.4
2020-03-01T05:25:03,42.805,6.029,0.007,0.004,-0.033,102.0,109.0,101.0,13.4,1505.3,327.2,-0.7,1.8,2470.276,13.33,0.008,60.3
2020-03-01T05:28:03,42.805,6.029,-0.02,0.001,-0.033,101.0,107.0,101.0,13.4,1505.3,324.4,-0.7,1.9,2470.288,13.33,0.02,272.9
2020-03-01T05:31:03,42.805,6.029,0.009,0.0,-0.026,103.0,107.0,101.0,13.4,1505.3,324.7,-0.7,1.8,2470.239,13.33,0.009,90.0
2020-03-01T05:34:03,42.805,6.029,0.054,0.007,0.0,104.0,106.0,101.0,13.4,1505.3,323.6,-0.7,1.9,2470.22,13.33,0.054,82.6
2020-03-01T05:37:03,42.805,6.029,0.022,0.01,-0.033,104.0,107.0,99.0,13.3,1505.3,324.8,-0.7,1.8,2470.229,13.33,0.024,65.6
2020-03-01T05:40:03,42.805,6.029,0.013,0.0,-0.032,105.0,105.0,101.0,13.4,1505.3,325.4,-0.7,1.8,2470.208,13.33,0.013,90.0
2020-03-01T05:43:03,42.805,6.029,0.026,-0.006,-0.043,106.0,107.0,100.0,13.4,1505.3,326.9,-0.7,1.8,2470.271,13.33,0.026,103.0
2020-03-01T05:46:03,42.805,6.029,0.0,0.022,-0.033,105.0,106.0,102.0,13.4,1505.3,328.0,-0.7,1.8,2470.209,13.33,0.022,0.0
2020-03-01T05:49:03,42.805,6.029,-0.006,0.014,-0.043,104.0,108.0,100.0,13.4,1505.3,323.5,-0.7,1.8,2470.242,13.33,0.015,336.8
2020-03-01T05:52:03,42.805,6.029,0.016,-0.001,-0.026,106.0,107.0,103.0,13.4,1505.3,327.3,-0.7,1.8,2470.23,13.33,0.016,93.6
2020-03-01T05:55:03,42.805,6.029,0.001,-0.003,-0.045,105.0,106.0,102.0,13.4,1505.3,325.4,-0.7,1.8,2470.253,13.33,0.003,161.6
2020-03-01T05:58:03,42.805,6.029,0.023,0.011,-0.027,104.0,108.0,102.0,13.4,1505.3,328.1,-0.7,1.8,2470.264,13.33,0.025,64.4
2020-03-01T06:04:03,42.805,6.029,0.037,0.013,0.031,103.0,106.0,101.0,13.4,1505.3,327.6,-0.7,1.8,2470.271,13.31,0.039,70.6
2020-03-01T06:07:03,42.805,6.029,0.011,-0.006,-0.044,104.0,108.0,102.0,13.3,1505.3,325.2,-0.7,1.8,2470.296,13.32,0.012,118.6
2020-03-01T06:10:03,42.805,6.029,0.016,0.013,-0.048,105.0,107.0,101.0,13.3,1505.3,325.1,-0.7,1.8,2470.287,13.32,0.02,50.9
2020-03-01T06:13:03,42.805,6.029,0.007,0.013,-0.004,104.0,106.0,100.0,13.4,1505.3,328.1,-0.7,1.8,2470.258,13.32,0.014,28.3
2020-03-01T06:16:03,42.805,6.029,0.001,0.013,-0.035,107.0,106.0,101.0,13.4,1505.3,323.0,-0.7,1.8,2470.288,13.33,0.013,4.4
2020-03-01T06:19:03,42.805,6.029,0.017,-0.013,-0.045,104.0,108.0,102.0,13.4,1505.3,326.6,-0.7,1.8,2470.218,13.33,0.021,127.4
2020-03-01T06:22:03,42.805,6.029,-0.006,-0.014,-0.029,104.0,107.0,102.0,13.4,1505.3,324.6,-0.7,1.8,2470.274,13.33,0.015,203.2
2020-03-01T06:25:03,42.805,6.029,0.032,-0.011,-0.052,105.0,108.0,102.0,13.4,1505.3,327.4,-0.7,1.8,2470.289,13.33,0.033,109.0
2020-03-01T06:28:03,42.805,6.029,-0.015,-0.024,-0.052,104.0,107.0,101.0,13.3,1505.3,323.5,-0.7,1.8,2470.259,13.33,0.028,212.0
2020-03-01T06:31:03,42.805,6.029,0.014,-0.008,-0.032,106.0,108.0,101.0,13.4,1505.3,323.6,-0.7,1.8,2470.26,13.33,0.016,119.7
2020-03-01T06:34:03,42.805,6.029,0.031,0.01,-0.033,104.0,106.0,101.0,13.4,1505.3,325.5,-0.7,1.9,2470.239,13.33,0.032,72.1
2020-03-01T06:37:03,42.805,6.029,0.026,0.015,-0.051,104.0,106.0,103.0,13.4,1505.3,326.7,-0.7,1.8,2470.26,13.33,0.03,60.0
2020-03-01T06:40:03,42.805,6.029,0.011,0.004,-0.055,105.0,107.0,102.0,13.4,1505.3,326.2,-0.7,1.8,2470.263,13.33,0.011,70.0
2020-03-01T06:43:03,42.805,6.029,0.018,-0.006,-0.065,105.0,105.0,101.0,13.3,1505.3,326.0,-0.7,1.8,2470.245,13.33,0.018,108.4
2020-03-01T06:46:03,42.805,6.029,0.026,0.001,-0.016,104.0,107.0,102.0,13.4,1505.3,325.7,-0.7,1.8,2470.242,13.33,0.026,87.8
2020-03-01T06:49:03,42.805,6.029,0.003,0.007,-0.065,103.0,106.0,102.0,13.4,1505.3,327.2,-0.7,1.9,2470.244,13.33,0.007,23.2
2020-03-01T06:52:03,42.805,6.029,0.0,-0.013,-0.092,104.0,105.0,101.0,13.4,1505.3,325.9,-0.7,1.8,2470.234,13.33,0.013,180.0
2020-03-01T06:55:03,42.805,6.029,0.0,-0.011,-0.048,106.0,105.0,100.0,13.4,1505.3,324.7,-0.7,1.8,2470.224,13.33,0.011,180.0
2020-03-01T06:58:03,42.805,6.029,0.009,0.0,-0.035,103.0,107.0,102.0,13.4,1505.3,326.2,-0.7,1.8,2470.263,13.33,0.009,90.0
2020-03-01T07:04:03,42.805,6.029,0.028,-0.004,-0.009,104.0,106.0,102.0,13.4,1505.3,326.8,-0.7,1.8,2470.307,13.31,0.028,98.1
2020-03-01T07:07:03,42.805,6.029,0.014,-0.011,-0.025,103.0,107.0,101.0,13.4,1505.3,323.5,-0.7,1.9,2470.339,13.31,0.017,128.2
2020-03-01T07:10:03,42.805,6.029,0.007,0.007,-0.029,104.0,105.0,101.0,13.3,1505.3,325.4,-0.7,1.8,2470.291,13.32,0.009,45.0
2020-03-01T07:13:03,42.805,6.029,0.03,0.009,-0.033,105.0,106.0,101.0,13.4,1505.3,325.1,-0.7,1.8,2470.254,13.32,0.031,73.3
2020-03-01T07:16:03,42.805,6.029,0.026,0.002,-0.017,104.0,107.0,102.0,13.4,1505.3,327.4,-0.7,1.8,2470.291,13.32,0.026,85.6
2020-03-01T07:22:03,42.805,6.029,0.006,-0.028,-0.064,106.0,105.0,101.0,13.3,1505.3,323.6,-0.7,1.8,2470.3,13.31,0.028,167.9
2020-03-01T07:25:03,42.805,6.029,0.027,-0.027,-0.022,105.0,106.0,104.0,13.3,1505.3,326.7,-0.7,1.9,2470.305,13.31,0.038,135.0
2020-03-01T07:28:03,42.805,6.029,0.005,-0.012,-0.022,104.0,107.0,102.0,13.4,1505.3,327.1,-0.7,1.8,2470.329,13.32,0.013,157.4
2020-03-01T07:31:03,42.805,6.029,0.0,-0.01,-0.039,105.0,106.0,103.0,13.4,1505.3,323.7,-0.7,1.9,2470.281,13.32,0.01,180.0
2020-03-01T07:34:03,42.805,6.029,0.008,-0.021,-0.041,105.0,106.0,102.0,13.3,1505.3,326.4,-0.7,1.8,2470.268,13.32,0.022,159.1
2020-03-01T07:37:03,42.805,6.029,-0.001,0.001,-0.028,104.0,106.0,103.0,13.4,1505.3,325.2,-0.7,1.8,2470.317,13.32,0.001,315.0
2020-03-01T07:40:03,42.805,6.029,0.016,-0.015,-0.039,105.0,106.0,102.0,13.4,1505.3,323.0,-0.7,1.8,2470.306,13.33,0.021,133.1
2020-03-01T07:43:03,42.805,6.029,-0.014,-0.01,-0.061,105.0,107.0,102.0,13.4,1505.3,326.6,-0.7,1.9,2470.312,13.33,0.017,234.5
2020-03-01T07:46:03,42.805,6.029,0.002,-0.002,-0.042,104.0,106.0,102.0,13.4,1505.3,325.5,-0.7,1.8,2470.299,13.33,0.002,135.0
2020-03-01T07:49:03,42.805,6.029,-0.003,-0.02,-0.026,105.0,106.0,102.0,13.4,1505.3,326.5,-0.7,1.8,2470.273,13.33,0.02,188.5
2020-03-01T07:52:03,42.805,6.029,0.018,-0.005,-0.003,104.0,106.0,103.0,13.4,1505.3,322.9,-0.8,1.8,2470.277,13.33,0.018,105.5
2020-03-01T07:55:03,42.805,6.029,-0.004,-0.011,-0.047,105.0,106.0,102.0,13.4,1505.3,325.8,-0.7,1.8,2470.339,13.33,0.011,200.0
2020-03-01T07:58:03,42.805,6.029,0.013,0.001,-0.007,105.0,108.0,101.0,13.4,1505.3,325.7,-0.7,1.9,2470.305,13.33,0.013,85.6
2020-03-01T08:04:03,42.805,6.029,0.004,-0.016,-0.067,105.0,106.0,102.0,13.4,1505.3,325.6,-0.7,1.8,2470.313,13.31,0.016,166.0
2020-03-01T08:07:03,42.805,6.029,0.024,0.003,0.009,104.0,105.0,102.0,13.4,1505.3,323.0,-0.7,1.8,2470.331,13.31,0.024,82.9
2020-03-01T08:10:03,42.805,6.029,0.016,-0.007,-0.021,105.0,105.0,102.0,13.3,1505.3,324.1,-0.7,1.8,2470.335,13.32,0.017,113.6
2020-03-01T08:13:03,42.805,6.029,-0.019,-0.007,-0.072,106.0,107.0,102.0,13.4,1505.3,326.5,-0.7,1.8,2470.338,13.32,0.02,249.8
2020-03-01T08:16:03,42.805,6.029,0.002,-0.015,-0.059,104.0,106.0,103.0,13.4,1505.3,327.3,-0.7,1.9,2470.331,13.32,0.015,172.4
2020-03-01T08:19:03,42.805,6.029,0.003,-0.005,-0.03,105.0,106.0,103.0,13.4,1505.3,325.9,-0.7,1.8,2470.287,13.32,0.005,149.0
2020-03-01T08:22:03,42.805,6.029,0.037,0.0,-0.006,105.0,106.0,103.0,13.3,1505.3,324.6,-0.7,1.8,2470.339,13.33,0.037,90.0
2020-03-01T08:25:03,42.805,6.029,0.009,-0.003,-0.03,106.0,106.0,101.0,13.4,1505.3,326.1,-0.7,1.8,2470.324,13.33,0.009,108.4
2020-03-01T08:28:03,42.805,6.029,0.001,-0.002,0.0,105.0,105.0,102.0,13.3,1505.3,327.1,-0.7,1.8,2470.328,13.33,0.002,153.4
2020-03-01T08:31:03,42.805,6.029,0.0,0.006,-0.015,105.0,108.0,102.0,13.4,1505.3,326.4,-0.7,1.8,2470.343,13.33,0.006,0.0
2020-03-01T08:34:03,42.805,6.029,0.0,0.001,-0.056,106.0,107.0,101.0,13.4,1505.3,326.1,-0.7,1.8,2470.324,13.33,0.001,0.0
2020-03-01T08:37:03,42.805,6.029,-0.011,-0.012,-0.039,106.0,105.0,101.0,13.3,1505.3,324.6,-0.7,1.8,2470.357,13.33,0.016,222.5
2020-03-01T08:40:03,42.805,6.029,-0.005,-0.001,-0.04,104.0,106.0,101.0,13.3,1505.3,326.8,-0.7,1.8,2470.326,13.33,0.005,258.7
2020-03-01T08:43:03,42.805,6.029,0.003,-0.003,-0.01,103.0,105.0,101.0,13.4,1505.3,327.4,-0.7,1.8,2470.344,13.33,0.004,135.0
2020-03-01T08:46:03,42.805,6.029,-0.009,-0.005,-0.024,103.0,106.0,102.0,13.4,1505.3,323.4,-0.7,1.9,2470.31,13.33,0.01,240.9
2020-03-01T08:52:03,42.805,6.029,0.011,-0.014,-0.05,104.0,106.0,101.0,13.4,1505.3,325.4,-0.7,1.8,2470.363,13.31,0.017,141.8
2020-03-01T08:55:03,42.805,6.029,-0.001,0.0,-0.011,104.0,107.0,101.0,13.3,1505.3,323.8,-0.7,1.9,2470.4,13.31,0.001,270.0
2020-03-01T08:58:03,42.805,6.029,0.019,-0.015,-0.045,104.0,106.0,103.0,13.3,1505.3,324.4,-0.7,1.9,2470.337,13.32,0.024,128.3
2020-03-01T09:04:03,42.805,6.029,0.027,-0.029,-0.036,106.0,105.0,101.0,13.3,1505.2,325.3,-0.7,1.8,2470.377,13.3,0.039,137.0
2020-03-01T09:07:03,42.805,6.029,0.011,0.013,-0.018,105.0,106.0,102.0,13.4,1505.3,326.0,-0.7,1.8,2470.354,13.31,0.017,40.2
2020-03-01T09:10:03,42.805,6.029,0.015,-0.002,-0.042,106.0,107.0,103.0,13.4,1505.3,326.7,-0.7,1.9,2470.339,13.32,0.015,97.6
2020-03-01T09:13:03,42.805,6.029,-0.007,-0.021,-0.002,104.0,107.0,102.0,13.4,1505.3,325.9,-0.7,1.8,2470.404,13.32,0.022,198.4
2020-03-01T09:16:03,42.805,6.029,-0.003,-0.001,-0.041,105.0,106.0,102.0,13.3,1505.3,327.7,-0.7,1.8,2470.353,13.32,0.003,251.6
2020-03-01T09:19:03,42.805,6.029,0.01,-0.01,-0.039,104.0,106.0,101.0,13.4,1505.3,324.8,-0.7,1.9,2470.378,13.32,0.014,135.0
2020-03-01T09:22:03,42.805,6.029,0.021,-0.002,-0.037,104.0,106.0,101.0,13.4,1505.3,326.3,-0.7,1.8,2470.359,13.32,0.021,95.4
2020-03-01T09:25:03,42.805,6.029,0.003,-0.007,-0.065,104.0,107.0,101.0,13.3,1505.3,322.9,-0.7,1.8,2470.414,13.32,0.007,156.8
2020-03-01T09:28:03,42.805,6.029,0.014,-0.01,-0.009,104.0,107.0,102.0,13.4,1505.3,326.6,-0.7,1.9,2470.381,13.32,0.017,125.5
2020-03-01T09:31:03,42.805,6.029,0.047,0.013,0.018,104.0,107.0,102.0,13.3,1505.3,324.0,-0.7,1.8,2470.402,13.32,0.048,74.5
2020-03-01T09:34:03,42.805,6.029,-0.004,-0.015,-0.036,104.0,106.0,103.0,13.4,1505.3,323.8,-0.7,1.8,2470.399,13.33,0.015,194.9
2020-03-01T09:37:03,42.805,6.029,0.008,-0.009,-0.004,104.0,106.0,101.0,13.4,1505.3,324.0,-0.7,1.9,2470.368,13.33,0.012,138.4
2020-03-01T09:40:03,42.805,6.029,-0.019,0.008,-0.052,104.0,108.0,101.0,13.4,1505.3,325.1,-0.7,1.8,2470.382,13.33,0.02,292.8
2020-03-01T09:43:03,42.805,6.029,-0.009,-0.004,-0.028,105.0,108.0,100.0,13.4,1505.3,328.1,-0.7,1.8,2470.363,13.33,0.009,246.0
2020-03-01T09:46:03,42.805,6.029,0.022,0.006,-0.017,104.0,105.0,102.0,13.4,1505.3,324.9,-0.7,1.8,2470.326,13.33,0.022,74.7
2020-03-01T09:49:03,42.805,6.029,0.03,-0.009,-0.038,104.0,107.0,100.0,13.3,1505.3,323.5,-0.7,1.8,2470.403,13.33,0.031,106.7
2020-03-01T09:52:03,42.805,6.029,-0.005,0.004,-0.021,104.0,106.0,102.0,13.4,1505.3,323.6,-0.7,1.8,2470.353,13.33,0.006,308.7
2020-03-01T09:55:03,42.805,6.029,0.02,0.002,-0.006,104.0,106.0,103.0,13.4,1505.3,327.6,-0.7,1.8,2470.363,13.33,0.02,84.3
2020-03-01T09:58:03,42.805,6.029,-0.003,0.011,-0.027,104.0,106.0,102.0,13.4,1505.3,326.1,-0.7,1.8,2470.344,13.33,0.011,344.7
2020-03-01T10:04:03,42.805,6.029,0.009,-0.027,-0.028,106.0,106.0,103.0,13.3,1505.3,325.8,-0.8,1.8,2470.431,13.31,0.028,161.6
2020-03-01T10:07:03,42.805,6.029,-0.006,-0.019,-0.048,103.0,108.0,102.0,13.3,1505.3,328.0,-0.7,1.8,2470.404,13.31,0.019,197.5